Location: Carnières
(50.1682°N, 3.3474°E)
Time: 12:53:39
(UTC+00:00)

Okean 3 - Pass Details

Date: 23 May 2024
Orbit: 562 x 582 km, 82.5° (Epoch: 18 June)

Event Time Altitude Azimuth Distance (km) Brightness Sun altitude
Exits shadow 01:35:17 22° 240° (WSW) 1,258 4.7 -15.0°
Maximum altitude 01:37:12 33° 288° (WNW) 960 4.4 -14.8°
Drops below altitude 10° 01:40:56 10° 353° (N) 1,870 6.9 -14.6°
Sets 01:43:18 0° 4° (N) 2,774 8.1 -14.4°
